Regional Weather Roundup
Issued by NWS

Home | Current Version | Previous Version | Graphics & Text | Print | Product List | Glossary On
Versions: 1 2 3 4 5 6 7 8 9 10 11 12 13 14 15 16 17 18 19 20 21 22 23 24 25 26 27 28 29 30 31 32 33 34 35 36 37 38 39 40 41 42 43 44 45 46 47 48 49 50
000
ASUS43 KOAX 221402
RWRNE

WEATHER ROUNDUP FOR NEBRASKA
NATIONAL WEATHER SERVICE OMAHA NE
900 AM CDT SUN APR 22 2018

NOTES: SATELLITE DATA IS BEING USED TO AUGMENT CLOUD COVER ABOVE
       12000 FEET.
       "FAIR" INDICATES FEW OR NO CLOUDS BELOW 12,000 FEET WITH NO
       SIGNIFICANT WEATHER AND/OR OBSTRUCTIONS TO VISIBILITY.


NEZ001>004-019>022-054>056-221500-
NEBRASKA PANHANDLE

CITY           SKY/WX    TMP DP  RH WIND       PRES   REMARKS
SCOTTSBLUFF    FOG       36  36 100 E7        30.19R VSB 1/4 WCI  30
ALLIANCE       CLOUDY    37  37 100 S8        30.19R WCI  31
CHADRON        SUNNY     39  37  92 SW3       30.19R
GORDON         CLOUDY    38  36  91 SW12      30.20S WCI  31
SIDNEY         FOG       36  33  89 SW10      30.20S VSB 1/4 WCI  28
$$

NEZ057>060-069>072-079>082-221500-
SOUTHWEST NEBRASKA

CITY           SKY/WX    TMP DP  RH WIND       PRES   REMARKS
NORTH PLATTE   MOSUNNY   44  39  82 CALM      30.24S
IMPERIAL       CLOUDY    40  39  97 CALM      30.24R
LEXINGTON      CLOUDY    42  38  89 N5        30.25R
MCCOOK         PTSUNNY   43  41  93 N5        30.25R FOG
OGALLALA       CLOUDY    40  40  98 SE3       30.23S FOG
$$

NEZ005>010-023>029-035>040-094-221500-
NORTH CENTRAL NEBRASKA

CITY           SKY/WX    TMP DP  RH WIND       PRES   REMARKS
VALENTINE      SUNNY     45  39  79 S7        30.23R
AINSWORTH      SUNNY     43  39  84 SW7       30.23S
BROKEN BOW     CLOUDY    43  37  79 N5        30.24S
O`NEILL        SUNNY     48  38  68 NE3       30.27R
ORD            MOSUNNY   45  37  73 N5        30.25R
THEDFORD       SUNNY     43  37  81 S3        30.24S
$$

NEZ041-046>049-061>064-073>077-083>087-221500-
SOUTH CENTRAL NEBRASKA

CITY           SKY/WX    TMP DP  RH WIND       PRES   REMARKS
GRAND ISLAND   MOSUNNY   44  39  82 N8        30.25S
AURORA         MOSUNNY   45  38  76 NE14      30.24F
HASTINGS       CLOUDY    44  40  85 N10       30.24S
HEBRON         CLOUDY    43  37  79 N6        30.22F
HOLDREGE       PTSUNNY   41  40  96 N6        30.24S
KEARNEY        CLOUDY    43  39  86 N9        30.25S
YORK             N/A     45  39  81 N10       30.24F
$$

NEZ011>018-030>034-042>045-221500-
NORTHEAST NEBRASKA

CITY           SKY/WX    TMP DP  RH WIND       PRES   REMARKS
NORFOLK        CLOUDY    43  36  76 NE3       30.25F
ALBION         PTSUNNY   49  38  66 N9        30.26S
BLAIR          CLOUDY    49  33  54 NE12      30.23S
COLUMBUS       SUNNY     46  33  60 N7        30.27R
FREMONT        CLOUDY    45  34  66 N5        30.26R
TEKAMAH        CLOUDY    45  34  65 NW9       30.26R
WAYNE          MOSUNNY   40  39  96 CALM      30.28R
$$

NEZ050>053-065>068-078-088>093-221500-
SOUTHEAST NEBRASKA

CITY           SKY/WX    TMP DP  RH WIND       PRES   REMARKS
LINCOLN        CLOUDY    44  33  65 N8        30.24R
OMAHA EPPLEY   CLOUDY    51  32  48 E7        30.24R
BEATRICE       PTSUNNY   50  37  60 NE12      30.20S
FALLS CITY     CLOUDY    51  33  50 NE7       30.17S
NEBRASKA CITY  PTSUNNY   49  34  57 NE12      30.20S
$$

NEZ044-045-051>053-067-221500-
OMAHA AREA

CITY           SKY/WX    TMP DP  RH WIND       PRES   REMARKS
OMAHA EPPLEY   CLOUDY    51  32  48 E7        30.24R
BLAIR          CLOUDY    49  33  54 NE12      30.23S
FREMONT        CLOUDY    45  34  66 N5        30.26R
MILLARD        CLOUDY    52  34  51 E6        30.23S
WAHOO          CLOUDY    43  32  64 NW8       30.24S
$$




USA.gov is the U.S. government's official web portal to all federal, state and local government web resources and services.